This is the latest recevied weather packets stored in our database for station/object 2E1HJE-10. If no packets are shown the sender has not sent any weather packets the latest 10 day(s).
| Time | Temp. | Humidity | Pressure | Rain* | Wind** | Luminosity | Snow |
|---|---|---|---|---|---|---|---|
| 1777813707 | 17.78° C | 65% | 1009.5 hPa | 0.51 mm | - | - | - |
| 1777813107 | 17.78° C | 74% | 1009.8 hPa | 0 mm | - | - | - |
| 1777812507 | 17.78° C | 74% | 1009.8 hPa | 0 mm | - | - | - |
| 1777811908 | 17.22° C | 74% | 1009.8 hPa | 0 mm | - | - | - |
| 1777811307 | 17.78° C | 74% | 1009.8 hPa | 0 mm | - | - | - |
| 1777810708 | 17.78° C | 68% | 1009.8 hPa | 0 mm | - | - | - |
| 1777810107 | 17.78° C | 68% | 1009.8 hPa | 0 mm | - | - | - |
| 1777809507 | 17.78° C | 74% | 1009.8 hPa | 0 mm | - | - | - |
| 1777808906 | 17.78° C | 74% | 1009.8 hPa | 0 mm | - | - | - |
| 1777808306 | 17.22° C | 74% | 1009.8 hPa | 0 mm | - | - | - |
| 1777806509 | 18.33° C | 69% | 1009.6 hPa | 0 mm | - | - | - |
| 1777805907 | 17.78° C | 77% | 1009.7 hPa | 0 mm | - | - | - |
| 1777805306 | 17.78° C | 77% | 1009.7 hPa | 0 mm | - | - | - |
| 1777804706 | 17.22° C | 78% | 1009.7 hPa | 0 mm | - | - | - |
| 1777804107 | 17.22° C | 78% | 1009.7 hPa | 0 mm | - | - | - |
| 1777803506 | 17.22° C | 78% | 1009.7 hPa | 0 mm | - | - | - |
| 1777802906 | 17.22° C | 78% | 1009.7 hPa | 0 mm | - | - | - |
| 1777802306 | 16.67° C | 86% | 1010 hPa | 0 mm | - | - | - |
| 1777801706 | 16.67° C | 86% | 1010 hPa | 0 mm | - | - | - |
| 1777801106 | 16.11° C | 86% | 1010 hPa | 0 mm | - | - | - |
| 1777800507 | 15.56° C | 86% | 1010 hPa | 0 mm | - | - | - |
| 1777799906 | 16.11° C | 83% | 1009.9 hPa | 0 mm | - | - | - |
| 1777799306 | 16.11° C | 83% | 1009.9 hPa | 0 mm | - | - | - |
| 1777798708 | 15.56° C | 88% | 1009.9 hPa | 0 mm | - | - | - |
| 1777798107 | 16.11° C | 88% | 1009.8 hPa | 0 mm | - | - | - |
* Rain latest hour (hover to see other rain measurements)
** Current wind speed in m/s (hover to see current wind gust speed)